Regional Weather Roundup
Issued by NWS

Home | Current Version | Previous Version | Graphics & Text | Print | Product List | Glossary Off
Versions: 1 2 3 4 5 6 7 8 9 10 11 12 13 14 15 16 17 18 19 20 21 22 23 24 25 26 27 28 29 30 31 32 33 34 35 36 37 38 39 40 41 42 43 44 45 46 47 48 49 50

000
ASUS43 KMPX 291210
RWRMN
WEATHER ROUNDUP FOR MINNESOTA
NATIONAL WEATHER SERVICE TWIN CITIES/CHANHASSEN MN
700 AM CDT SAT AUG 29 2015


NOTE: "FAIR" INDICATES FEW OR NO CLOUDS BELOW 12,000 FEET WITH NO
SIGNIFICANT WEATHER AND/OR OBSTRUCTIONS TO VISIBILITY. N/A MEANS
CURRENT SKY AND/OR WEATHER CONDITIONS ARE NOT AVAILABLE.

MNZ060>063-068>070-291300-
   Twin Cities Metro

CITY           SKY/WX    TMP DP  RH WIND       PRES   REMARKS
TWIN CITIES    MOCLDY    57  54  89 E7        30.05S
6HR MIN TEMP:  56; 6HR MAX TEMP:  60;

ST PAUL        PTCLDY    56  54  93 E6        30.06R
CRYSTAL        PTCLDY    55  53  93 CALM      30.04R FOG
BLAINE         MOCLDY    55  55 100 E3        30.05S
LAKEVILLE      CLOUDY    55  55 100 E3        30.05R FOG
EDEN PRAIRIE   PTCLDY    57  54  89 E5        30.04R
6HR MIN TEMP:  56; 6HR MAX TEMP:  60;

SOUTH ST PAUL  MOCLDY    56  54  92 E3        30.06R
LAKE ELMO      FAIR      54  54 100 E3        30.07R FOG
$$
MNZ001>005-007-008-013>017-022>024-027-028-291300-
   Northwest Minnesota

CITY           SKY/WX    TMP DP  RH WIND       PRES   REMARKS
BEMIDJI        CLEAR     60  59  96 S5        29.99R
HALLOCK        FOG       66  64  94 S8        29.90R VSB 1/4
ROSEAU         HAZE      64  59  82 S3        29.93S VSB 1/2
WARROAD        FOG       63  59  88 SW5       29.94S VSB<1/4
THIEF RVR FALL CLEAR    N/A N/A N/A S7        29.93S
CROOKSTON      CLEAR     63  61  94 S8        29.94R
FOSSTON        CLEAR     61  59  94 S9        29.97R
DETROIT LAKES  CLEAR     61  59  94 S7        30.00S
MOORHEAD       CLEAR     61  59  94 S12       29.97R
PARK RAPIDS    PTCLDY    60  57  89 S8        30.01R
MAHNOMEN       FAIR      61  59  92 S6        29.97S
$$
MNZ006-009>011-018-025>026-291300-
   North Central Minnesota

CITY           SKY/WX    TMP DP  RH WIND       PRES   REMARKS
BAUDETTE       FOG       59  59 100 CALM      29.94S VSB 1/4
FLAG ISLAND    FOG       63  63 100 CALM      29.93R VSB 1/2
INTL FALLS     CLOUDY    65  63  93 S5        29.96R
6HR MIN TEMP:  65; 6HR MAX TEMP:  69;

WASKISH        CLOUDY    63  61  94 CALM      29.96S
BIG FORK       MOCLDY    64  61  88 S7        30.00R
LONGVILLE      PTCLDY    59  57  94 S6        30.01S
GRAND RAPIDS     N/A     61  55  82 S9        30.03R
CRANE LAKE     CLOUDY    61  61 100 S3        29.99S
ORR            CLOUDY    64  57  77 S7        29.97F
COOK           CLOUDY    64  61  88 S7        30.01S
WALKER         FAIR      59  58  95 S5        30.00R
$$
MNZ012-019>021-037-291300-
   Northeast Minnesota

CITY           SKY/WX    TMP DP  RH WIND       PRES   REMARKS
DULUTH         CLOUDY    58  56  93 SW8       30.02F
6HR MIN TEMP:  58; 6HR MAX TEMP:  62; 6HR PCP:  0.05;

ELY            PTCLDY    57  55  94 SW5       30.00S
HIBBING        CLOUDY    61  57  87 VRB5      30.03R
EVELETH        CLOUDY    59  57  94 SW7       30.04R
DULUTH HARBOR  CLOUDY    59  57  94 SW9       30.03R
TWO HARBORS    CLOUDY    63  57  82 SW10      29.99S
SILVER BAY     PTCLDY    59  57  94 CALM      29.98S
GRAND MARAIS     N/A     51  49  92 W3        29.96S
G MARAIS ARPRT PTCLDY    55  54  94 W5        30.00S
$$
MNZ029>031-032-039>041-046>048-054>057-064-291300-
   West Central Minnesota

CITY           SKY/WX    TMP DP  RH WIND       PRES   REMARKS
FERGUS FALLS   CLEAR     59  59 100 S8        30.00S
WHEATON        CLEAR     55  54  94 SE8       30.01S
MORRIS         CLEAR     55  54  94 SE7       30.02R
ALEXANDRIA     MOCLDY    58  56  93 S7        30.05R
ELBOW LAKE     FAIR      56  55  95 S8        30.01S
WADENA         CLEAR     55  55 100 CALM      30.02R
GLENWOOD       CLEAR     54  54 100 S5        30.05R FOG
APPLETON       CLEAR     57  54  88 S3        30.02S
BENSON         CLEAR     54  52  94 CALM      30.05R
ORTONVILLE     CLEAR     55  54  94 SE6       30.02R
MADISON        FAIR      54  52  94 S3        30.03R
WILLMAR        FAIR      52  52 100 SE3       30.07R FOG
$$
MNZ033>034-036-042>043-049>051-058-059-291300-
   Central Minnesota

CITY           SKY/WX    TMP DP  RH WIND       PRES   REMARKS
ST CLOUD       FOG       53  53 100 CALM      30.05S VSB 1
6HR MIN TEMP:  52; 6HR MAX TEMP:  58;

SAUK CENTRE    FAIR      53  53  99 CALM      30.05R FOG
PAYNESVILLE    PTCLDY    56  55  97 SE3       30.06R
AITKIN         CLOUDY    61  55  82 S5        30.03S
PINE RIVER     PTCLDY    59  59 100 S5        30.05S
BRAINERD       CLOUDY    57  56  96 S7        30.04S
STAPLES        CLOUDY    57  55  94 S5        30.03R
LONG PRAIRIE   CLOUDY    54  54 100 S3        30.05R
LITTLE FALLS   MOCLDY    54  52  94 SE3       30.04F
LITCHFIELD     PTCLDY    57  57 100 SE3       30.06R FOG
BUFFALO        PTCLDY    53  51  92 CALM      30.06S FOG
MAPLE LAKE     PTCLDY    54  53  99 CALM      30.06S FOG
$$
MNZ037-044-045-052-053-291300-
   East Central Minnesota

CITY           SKY/WX    TMP DP  RH WIND       PRES   REMARKS
PRINCETON      MOCLDY    55  54  94 CALM      30.05S FOG
MORA           CLOUDY    52  52 100 CALM      30.07S FOG
CAMBRIDGE      MOCLDY    57  50  77 CALM      30.04R
RUSH CITY      MOCLDY    53  52  97 CALM      30.07R
MOOSE LAKE     CLOUDY    57  54  88 CALM      30.04R
HINCKLEY       FAIR      54  54 100 CALM      30.06F FOG
CLOQUET        CLOUDY    57  55  94 S8        30.04S
MCGREGOR       CLOUDY    59  55  88 S6        30.04F
$$
MNZ071>073-080-081-089-090-097-098-291300-
   Southwest Minnesota

CITY           SKY/WX    TMP DP  RH WIND       PRES   REMARKS
MONTEVIDEO     FAIR      54  54 100 S3        30.06R
GRANITE FALLS  MOCLDY    50  49  99 CALM      30.06R FOG
CANBY          CLEAR     53  52  94 CALM      30.05R
MARSHALL       CLEAR     52  48  87 CALM      30.05R
REDWOOD FALLS  FOG       51  51 100 S3        30.05R VSB 1/4
OLIVIA         FOG       52  50  93 SE5       30.04R VSB 1/2
PIPESTONE      CLEAR     52  50  93 CALM      30.06R
WINDOM         FOG       55  55 100 CALM      30.05S VSB 1/4
WORTHINGTON    CLOUDY    54  50  87 CALM      30.06R VSB<1/4
JACKSON        FOG       55  55 100 CALM      30.06S VSB<1/4
TRACY          CLEAR     55  54  97 S6        30.04S
SLAYTON        FOG       49  49 100 CALM      30.06R VSB 3/4
$$
MNZ065>067-074>077-082>085-091>093-291300-
   South Central Minnesota

CITY           SKY/WX    TMP DP  RH WIND       PRES   REMARKS
MANKATO        CLOUDY    57  54  88 CALM      30.05R VSB<1/4
NEW ULM        FOG       55  55 100 CALM      30.05R VSB 1/4
ST JAMES       FOG       57  57 100 CALM      30.07R VSB 3/4
FAIRMONT       CLOUDY    55  52  88 CALM      30.04R VSB<1/4
GLENCOE        FOG       55  56 100 CALM      30.04S VSB 3/4
FARIBAULT      CLOUDY    57  55  94 CALM      30.05R FOG
OWATONNA       CLOUDY    57  55  94 CALM      30.05R FOG
WASECA         FOG       55  55 100 MISG      30.06R VSB 1/4
ALBERT LEA     FOG       57  57 100 N3        30.04R VSB<1/4
$$
MNZ078>079-086>088-094>096-291300-
   Southeast Minnesota

CITY           SKY/WX    TMP DP  RH WIND       PRES   REMARKS
ROCHESTER      FOG       58  57  97 NE6       30.04R VSB 1/4
6HR MIN TEMP:  58; 6HR MAX TEMP:  58;

RED WING       CLOUDY    57  55  94 E6        30.04R FOG
STANTON        FOG       57  55  94 CALM      30.04R VSB 1/2
DODGE CENTER   FOG       57  55  94 NE3       30.04R VSB 1/4
WINONA         CLOUDY    59  57  94 NE3       30.05R
AUSTIN         FOG       61  57  88 NE5       30.02R VSB 1
PRESTON        FOG       58  56  96 NE6       30.04R VSB 1/4
$$
ABBREVIATIONS USED IN REMARKS
   TC - TEMPERATURES IN CELSIUS
  WCI - WIND CHILL INDEX
   HX - HEAT INDEX
  VSB - VISIBILITY
$$



USA.gov is the U.S. government's official web portal to all federal, state and local government web resources and services.